This is the latest recevied weather packets stored in our database for station/object KM5R. If no packets are shown the sender has not sent any weather packets the latest 10 day(s).
| Time | Temp. | Humidity | Pressure | Rain* | Wind** | Luminosity | Snow |
|---|---|---|---|---|---|---|---|
| 1777942331 | 25.56° C | 61% | 1008.7 hPa | 0 mm | - | 12 W/m² | - |
| 1777942028 | 25.56° C | 61% | 1009 hPa | 0 mm | - | 15 W/m² | - |
| 1777941724 | 26.11° C | 60% | 1009 hPa | 0 mm | - | 18 W/m² | - |
| 1777941421 | 26.11° C | 59% | 1009 hPa | 0 mm | - | 21 W/m² | - |
| 1777941119 | 26.11° C | 59% | 1008.8 hPa | 0 mm | - | 29 W/m² | - |
| 1777940815 | 26.67° C | 58% | 1009 hPa | 0 mm | - | 31 W/m² | - |
| 1777940513 | 26.67° C | 58% | 1009 hPa | 0 mm | - | 37 W/m² | - |
| 1777940210 | 26.67° C | 58% | 1008.9 hPa | 0 mm | - | 46 W/m² | - |
| 1777939908 | 26.67° C | 59% | 1009 hPa | 0 mm | - | 46 W/m² | - |
| 1777939604 | 26.67° C | 58% | 1009 hPa | 0 mm | - | 53 W/m² | - |
| 1777939302 | 27.22° C | 59% | 1009.1 hPa | 0 mm | - | 63 W/m² | - |
| 1777938998 | 27.22° C | 57% | 1009.2 hPa | 0 mm | - | 97 W/m² | - |
| 1777938695 | 27.22° C | 57% | 1009.2 hPa | 0 mm | - | 130 W/m² | - |
| 1777938392 | 27.22° C | 57% | 1009.2 hPa | 0 mm | - | 108 W/m² | - |
| 1777938090 | 27.22° C | 56% | 1009.3 hPa | 0 mm | - | 71 W/m² | - |
| 1777937785 | 27.22° C | 56% | 1009.1 hPa | 0 mm | - | 89 W/m² | - |
| 1777937481 | 27.22° C | 56% | 1009.2 hPa | 0 mm | - | 162 W/m² | - |
| 1777937179 | 27.22° C | 56% | 1009 hPa | 0 mm | - | 202 W/m² | - |
| 1777936876 | 27.22° C | 56% | 1009.3 hPa | 0 mm | - | 150 W/m² | - |
| 1777936572 | 27.22° C | 56% | 1009.4 hPa | 0 mm | - | 133 W/m² | - |
| 1777936269 | 27.22° C | 56% | 1009.3 hPa | 0 mm | - | 92 W/m² | - |
| 1777935964 | 27.78° C | 54% | 1009.3 hPa | 0 mm | - | 106 W/m² | - |
| 1777935664 | 27.78° C | 54% | 1009.1 hPa | 0 mm | - | 281 W/m² | - |
| 1777935361 | 27.78° C | 55% | 1009.4 hPa | 0 mm | - | 296 W/m² | - |
| 1777935057 | 27.78° C | 54% | 1009.8 hPa | 0 mm | - | 315 W/m² | - |
* Rain latest hour (hover to see other rain measurements)
** Current wind speed in m/s (hover to see current wind gust speed)